LZ3SV-3 Weather Reports


time (UTC)temp
C
wind
direction
speed
KPH
gust
KPH
rain 1hr
cm
rain 24hr
cm
rain mn
cm
humidity
%
barometer
mb
20260506153130 34 0.0 0.0 0.00 0.00 0.00 22 987.7
20260506152130 34 0.0 0.0 0.00 0.00 0.00 22 987.9
20260506151131 34 0.0 0.0 0.00 0.00 0.00 21 987.8
20260506150131 35 0.0 0.0 0.00 0.00 0.00 21 987.9
20260506145131 35 0.0 0.0 0.00 0.00 0.00 21 988.0
20260506144130 34 0.0 0.0 0.00 0.00 0.00 22 988.0
20260506143130 35 0.0 0.0 0.00 0.00 0.00 20 987.9
20260506141130 33 0.0 0.0 0.00 0.00 0.00 21 988.0
20260506140130 35 0.0 0.0 0.00 0.00 0.00 21 988.1
20260506135130 34 0.0 0.0 0.00 0.00 0.00 21 988.0
20260506134130 35 0.0 0.0 0.00 0.00 0.00 20 988.2
20260506133130 32 0.0 0.0 0.00 0.00 0.00 21 988.1
20260506132131 34 0.0 0.0 0.00 0.00 0.00 20 988.3
20260506131130 33 0.0 0.0 0.00 0.00 0.00 21 988.2
20260506124130 32 0.0 0.0 0.00 0.00 0.00 25 988.5
20260506123131 33 0.0 0.0 0.00 0.00 0.00 24 988.6
20260506121130 32 0.0 0.0 0.00 0.00 0.00 24 988.7
20260506120132 31 0.0 0.0 0.00 0.00 0.00 27 988.9
20260506115131 30 0.0 0.0 0.00 0.00 0.00 28 989.2
20260506114130 29 0.0 0.0 0.00 0.00 0.00 27 989.2
20260506112130 28 0.0 0.0 0.00 0.00 0.00 29 989.5
20260506111130 28 0.0 0.0 0.00 0.00 0.00 27 989.5
20260506110130 30 0.0 0.0 0.00 0.00 0.00 30 989.6
20260506104130 28 0.0 0.0 0.00 0.00 0.00 32 989.7
20260506103130 26 0.0 0.0 0.00 0.00 0.00 37 989.8
20260506102130 25 0.0 0.0 0.00 0.00 0.00 39 989.9
20260506101130 24 0.0 0.0 0.00 0.00 0.00 40 990.0
20260506095130 23 0.0 0.0 0.00 0.00 0.00 40 990.1
20260506094129 22 0.0 0.0 0.00 0.00 0.00 39 990.2
20260506093130 22 0.0 0.0 0.00 0.00 0.00 42 990.2
20260506092130 21 0.0 0.0 0.00 0.00 0.00 43 990.3
20260506091130 21 0.0 0.0 0.00 0.00 0.00 45 990.4
20260506090130 21 0.0 0.0 0.00 0.00 0.00 46 990.4
20260506085130 20 0.0 0.0 0.00 0.00 0.00 50 990.5
20260506083130 19 0.0 0.0 0.00 0.00 0.00 58 990.4
20260506081129 18 0.0 0.0 0.00 0.00 0.00 59 990.6
20260506080130 18 0.0 0.0 0.00 0.00 0.00 60 990.6
20260506072130 16 0.0 0.0 0.00 0.00 0.00 65 990.7
20260506071129 15 0.0 0.0 0.00 0.00 0.00 66 990.7
20260506070130 15 0.0 0.0 0.00 0.00 0.00 68 990.8
20260506062129 13 0.0 0.0 0.00 0.00 0.00 74 991.0
20260506061130 12 0.0 0.0 0.00 0.00 0.00 72 991.0
20260506060129 13 0.0 0.0 0.00 0.00 0.00 74 991.0
20260506050127 9 0.0 0.0 0.00 0.00 0.00 89 990.7
20260506045126 8 0.0 0.0 0.00 0.00 0.00 92 990.6
20260506044126 8 0.0 0.0 0.00 0.00 0.00 92 990.4
20260506042126 8 0.0 0.0 0.00 0.00 0.00 92 990.5
20260506041126 8 0.0 0.0 0.00 0.00 0.00 94 990.4
20260506040126 7 0.0 0.0 0.00 0.00 0.00 97 990.5
20260506035127 7 0.0 0.0 0.00 0.00 0.00 97 990.3
20260506034126 7 0.0 0.0 0.00 0.00 0.00 100 990.2
20260506033126 7 0.0 0.0 0.00 0.00 0.00 100 990.3
20260506032126 7 0.0 0.0 0.00 0.00 0.00 99 990.3
20260506031127 7 0.0 0.0 0.00 0.00 0.00 97 990.3
20260506030126 7 0.0 0.0 0.00 0.00 0.00 100 990.2
20260506025126 7 0.0 0.0 0.00 0.00 0.00 100 990.2
20260506024126 7 0.0 0.0 0.00 0.00 0.00 100 990.1
20260506023126 8 0.0 0.0 0.00 0.00 0.00 95 990.0
20260506022127 8 0.0 0.0 0.00 0.00 0.00 95 990.1
20260506021126 8 0.0 0.0 0.00 0.00 0.00 98 990.0
20260506020126 7 0.0 0.0 0.00 0.00 0.00 98 990.1
20260506015126 7 0.0 0.0 0.00 0.00 0.00 97 990.0
20260506014126 8 0.0 0.0 0.00 0.00 0.00 97 989.9
20260506013126 8 0.0 0.0 0.00 0.00 0.00 94 989.8
20260506012126 9 0.0 0.0 0.00 0.00 0.00 90 989.9
20260506011126 8 0.0 0.0 0.00 0.00 0.00 92 989.9
20260506010126 8 0.0 0.0 0.00 0.00 0.00 93 989.9
20260506005126 9 0.0 0.0 0.00 0.00 0.00 92 989.8
20260506004127 8 0.0 0.0 0.00 0.00 0.00 94 989.9
20260506002126 9 0.0 0.0 0.00 0.00 0.00 92 989.7
20260506001126 9 0.0 0.0 0.00 0.00 0.00 87 989.9
20260506000126 10 0.0 0.0 0.00 0.00 0.00 84 989.7
20260505235126 10 0.0 0.0 0.00 0.00 0.00 82 989.8
20260505232125 11 0.0 0.0 0.00 0.00 0.00 75 989.5
20260505231125 11 0.0 0.0 0.00 0.00 0.00 73 989.7
20260505230126 11 0.0 0.0 0.00 0.00 0.00 70 989.7
20260505225126 11 0.0 0.0 0.00 0.00 0.00 71 989.6
20260505223125 11 0.0 0.0 0.00 0.00 0.00 75 989.6
20260505222125 12 0.0 0.0 0.00 0.00 0.00 71 989.6
20260505221126 12 0.0 0.0 0.00 0.00 0.00 70 989.7
20260505220125 13 0.0 0.0 0.00 0.00 0.00 67 989.6
20260505214125 13 0.0 0.0 0.00 0.00 0.00 69 989.4
20260505213125 13 0.0 0.0 0.00 0.00 0.00 69 989.4
20260505212131 12 0.0 0.0 0.00 0.00 0.00 69 989.2
20260505211125 13 0.0 0.0 0.00 0.00 0.00 69 989.2
20260505210125 14 0.0 0.0 0.00 0.00 0.00 67 989.3
20260505205125 14 0.0 0.0 0.00 0.00 0.00 67 989.3
20260505204125 15 0.0 0.0 0.00 0.00 0.00 70 989.2
20260505203125 15 0.0 0.0 0.00 0.00 0.00 72 989.2
20260505202125 15 0.0 0.0 0.00 0.00 0.00 72 989.1
20260505200125 15 0.0 0.0 0.00 0.00 0.00 73 989.0
20260505195124 15 0.0 0.0 0.00 0.00 0.00 68 988.9
20260505194124 15 0.0 0.0 0.00 0.00 0.00 68 988.9
20260505193124 16 0.0 0.0 0.00 0.00 0.00 66 988.9
20260505192124 16 0.0 0.0 0.00 0.00 0.00 63 988.9
20260505191125 16 0.0 0.0 0.00 0.00 0.00 61 988.9
20260505185125 17 0.0 0.0 0.00 0.00 0.00 60 988.8
20260505184124 18 0.0 0.0 0.00 0.00 0.00 51 988.8
20260505183124 18 0.0 0.0 0.00 0.00 0.00 51 988.7
20260505182124 18 0.0 0.0 0.00 0.00 0.00 52 988.6
20260505181125 18 0.0 0.0 0.00 0.00 0.00 53 988.5
20260505180125 19 0.0 0.0 0.00 0.00 0.00 50 988.5
20260505175125 20 0.0 0.0 0.00 0.00 0.00 47 988.6
20260505174124 20 0.0 0.0 0.00 0.00 0.00 44 988.4
20260505173125 20 0.0 0.0 0.00 0.00 0.00 43 988.5
20260505172124 21 0.0 0.0 0.00 0.00 0.00 41 988.4
20260505171124 22 0.0 0.0 0.00 0.00 0.00 37 988.4
20260505170125 24 0.0 0.0 0.00 0.00 0.00 34 988.4
20260505164124 25 0.0 0.0 0.00 0.00 0.00 32 988.3
20260505163124 27 0.0 0.0 0.00 0.00 0.00 29 988.3
20260505162124 28 0.0 0.0 0.00 0.00 0.00 26 988.3
20260505161124 30 0.0 0.0 0.00 0.00 0.00 26 988.4